Location: Bothwell
(42.3833°S, 147.0000°E)
Time: 22:25:40
(UTC+10:00)

CUTE 1.7 + AOD 2 - Pass Details

Date: 06 February 2023
Orbit: 584 x 601 km, 97.7° (Epoch: 02 April)

Event Time Altitude Azimuth Distance (km) Brightness Sun altitude
Exits shadow 03:38:34 34° 58° (ENE) 985 ? -24.3°
Maximum altitude 03:39:55 47° 107° (ESE) 792 ? -24.1°
Drops below altitude 10° 03:43:59 10° 181° (S) 1,952 ? -23.7°
Sets 03:46:14 0° 186° (S) 2,865 ? -23.4°
